Regional Weather Roundup
Issued by NWS Albany, NY

Home | Current Version | Previous Version | Text Only | Print | Product List | Glossary On
Versions: 1 2 3 4 5 6 7 8 9 10 11 12 13 14 15 16 17 18 19 20 21 22 23 24 25 26 27 28
000
ASUS41 KALY 190110
RWRALY

NEW YORK STATE HOURLY WEATHER ROUNDUP
NATIONAL WEATHER SERVICE ALBANY NY
800 PM EST SAT FEB 18 2017

NOTE: "FAIR" INDICATES FEW OR NO CLOUDS BELOW 12,000 FEET WITH NO
SIGNIFICANT WEATHER AND/OR NO OBSTRUCTIONS TO VISIBILITY.

NYZ032-033-038>043-046>054-057>066-NYZ062>081-082-084-190200-
EAST


CITY           SKY/WX    TMP DP  RH WIND       PRES   REMARKS
ALBANY         PTCLDY    47  29  49 VRB5      29.58R
GLENS FALLS    CLEAR     41  25  53 SW7       29.54S
POUGHKEEPSIE   CLEAR     44  31  60 CALM      29.62S
NEWBURGH       PTCLDY    54  36  50 W9        29.64S
MONTGOMERY     CLOUDY    47  33  58 CALM      29.62S
WHITE PLAINS   CLEAR     51  32  48 CALM      29.65S
ISLIP          CLOUDY    45  38  76 SW8       29.67S
NEW YORK CITY  PTCLDY    62  32  32 SW13      29.66S
CENTRAL PARK   CLEAR     62  31  31 W14G22    29.68S
$$

NYZ005>009-017-018-044>046-055-056-190200-
CENTRAL


CITY           SKY/WX    TMP DP  RH WIND       PRES   REMARKS
FULTON         CLEAR     45  36  70 CALM      29.62R
SYRACUSE       CLEAR     47  34  60 W10       29.62R
ROME           CLEAR     36  32  85 CALM      29.62R
ELMIRA         CLEAR     38  30  73 CALM      29.66R
BINGHAMTON     CLEAR     51  31  46 SW10      29.64R
MONTICELLO     CLEAR     48  30  49 W5        29.66S
$$

NYZ026>034-041>043-087-190200-
NORTH


CITY           SKY/WX    TMP DP  RH WIND       PRES   REMARKS
WATERTOWN      CLEAR     42  36  79 SW10      29.59R
FORT DRUM      NOT AVBL
OGDENSBURG     FAIR      45  37  72 SW13G20   29.49S
MASSENA        CLEAR     46  35  65 SW20G28   29.48R
SARANAC LAKE   CLEAR     43  35  73 SW10      29.49R
PLATTSBURGH    CLEAR     52  34  50 S8        29.44R
$$

NYZ001>004-010>016-019>021-085-190200-
WEST


CITY           SKY/WX    TMP DP  RH WIND       PRES   REMARKS
NIAGARA FALLS  CLEAR     47  37  68 SW7       29.65R
BUFFALO        PTCLDY    42  35  76 SW10      29.67R
DUNKIRK        CLEAR     51  39  63 SW15G22   29.71R
JAMESTOWN        N/A     52  34  50 W8        29.72S
WELLSVILLE     CLEAR     54  34  46 NW10      29.71R
ROCHESTER      CLEAR     50  37  61 W10       29.65R
PENN YAN       CLEAR     55  34  45 SW13      29.66R
$$

             KEY
       WCI = WIND CHILL INDEX
       VSB = VISIBILITY
       HX  = HEAT INDEX
$$




USA.gov is the U.S. government's official web portal to all federal, state and local government web resources and services.